Weather History for Farmville, VA

Change the Weather History Date:

Wednesday, February 27, 2013

  Actual Average Record
Temperature  
Mean Temperature 46 °F -  
Max Temperature 57 °F 52 °F 77 °F (1977)
Min Temperature 35 °F 27 °F -5 °F (1963)
Degree Days  
Heating Degree Days 19    
Moisture  
Dew Point 35 °F    
Average Humidity 66    
Maximum Humidity 100    
Minimum Humidity 31    
Precipitation  
Precipitation 0.00 in - - ()
Sea Level Pressure  
Sea Level Pressure 29.65 in    
Wind  
Wind Speed 5 mph (SW)    
Max Wind Speed 14 mph    
Max Gust Speed 22 mph    
Visibility 8 miles    
Events Rain    
Averages and records for this station are not official NWS values.
T = Trace of Precipitation, MM = Missing Value Source: NWS Daily Summary

Daily Weather History Graph

Daily Weather History Graph

Search for Another Location

Airport:

Trip Planner

Search our weather history database for the weather conditions in past years. The results will help you decide how hot, cold, wet, or windy it might be!

Date:

Astronomy

Feb. 27, 2013 Rise Set
Actual Time 6:47 AM EST 6:05 PM EST
Civil Twilight 6:21 AM EST 6:32 PM EST
Nautical Twilight 5:50 AM EST 7:02 PM EST
Astronomical Twilight 5:20 AM EST 7:32 PM EST
Moon 8:20 PM EST (2/27) 7:25 AM EST (2/27)
Length of Visible Light 12h 11m
Length of Day
11h 18m
Waning Gibbous, 96% of the Moon is Illuminated
Feb 27
Waning Gibbous
Mar 4
Last Quarter
Mar 11
New
Mar 19
First Quarter
Mar 27
Full

Hourly Weather History & Observations

Time (EST) Temp. Windchill Dew Point Humidity Pressure Visibility Wind Dir Wind Speed Gust Speed Precip Events Conditions
12:15 AM 42.8 °F 40.1 °F 42.8 °F 100% 29.58 in 3.0 mi West 4.6 mph - N/A   Overcast
12:35 AM 44.6 °F - 42.8 °F 93% 29.57 in 2.0 mi Calm Calm - N/A   Overcast
12:55 AM 44.6 °F - 42.8 °F 93% 29.57 in 2.5 mi Calm Calm - N/A   Overcast
1:15 AM 44.6 °F - 42.8 °F 93% 29.57 in 4.0 mi Calm Calm - N/A   Overcast
1:35 AM 44.6 °F 43.1 °F 42.8 °F 93% 29.57 in 3.0 mi SSW 3.5 mph - N/A   Overcast
1:55 AM 44.6 °F 43.1 °F 42.8 °F 93% 29.57 in 2.5 mi SW 3.5 mph - N/A   Overcast
2:15 AM 44.6 °F - 42.8 °F 93% 29.57 in 2.0 mi Calm Calm - N/A   Overcast
2:35 AM 44.6 °F - 42.8 °F 93% 29.57 in 2.0 mi Calm Calm - N/A   Overcast
2:55 AM 44.6 °F - 42.8 °F 93% 29.57 in 2.0 mi Calm Calm - N/A   Overcast
3:15 AM 44.6 °F 42.2 °F 42.8 °F 93% 29.56 in 2.5 mi South 4.6 mph - N/A   Overcast
3:35 AM 44.6 °F 43.1 °F 42.8 °F 93% 29.57 in 3.0 mi SSW 3.5 mph - N/A   Overcast
3:55 AM 44.6 °F - 42.8 °F 93% 29.56 in 3.0 mi Calm Calm - N/A   Overcast
4:15 AM 44.6 °F - 42.8 °F 93% 29.56 in 1.8 mi Calm Calm - N/A   Overcast
4:35 AM 44.6 °F 43.1 °F 42.8 °F 93% 29.57 in 3.0 mi SW 3.5 mph - N/A   Overcast
4:55 AM 44.6 °F 42.2 °F 42.8 °F 93% 29.58 in 3.0 mi SW 4.6 mph - N/A   Overcast
5:15 AM 44.6 °F 41.4 °F 42.8 °F 93% 29.59 in 3.0 mi SSW 5.8 mph - N/A   Overcast
5:35 AM 44.6 °F 40.2 °F 42.8 °F 93% 29.60 in 4.0 mi SW 8.1 mph - N/A   Overcast
5:55 AM 44.6 °F 40.7 °F 42.8 °F 93% 29.60 in 5.0 mi SW 6.9 mph - N/A   Overcast
6:15 AM 44.6 °F 40.7 °F 42.8 °F 93% 29.60 in 4.0 mi SSW 6.9 mph - N/A   Overcast
6:35 AM 42.8 °F 38.0 °F 42.8 °F 100% 29.62 in 4.0 mi SW 8.1 mph - N/A   Overcast
6:55 AM 42.8 °F 38.0 °F 42.8 °F 100% 29.62 in 7.0 mi SW 8.1 mph - N/A   Overcast
7:15 AM 42.8 °F 38.6 °F 42.8 °F 100% 29.63 in 7.0 mi SW 6.9 mph - N/A   Overcast
7:35 AM 44.6 °F 39.7 °F 42.8 °F 93% 29.64 in 7.0 mi SW 9.2 mph - N/A   Overcast
7:55 AM 44.6 °F 39.7 °F 42.8 °F 93% 29.65 in 10.0 mi SW 9.2 mph - N/A   Overcast
8:15 AM 44.6 °F 40.2 °F 42.8 °F 93% 29.66 in 10.0 mi SW 8.1 mph - N/A   Overcast
8:35 AM 46.4 °F 41.9 °F 42.8 °F 87% 29.68 in 10.0 mi SW 9.2 mph - N/A   Mostly Cloudy
8:55 AM 46.4 °F 41.5 °F 42.8 °F 87% 29.68 in 10.0 mi WSW 10.4 mph - N/A   Mostly Cloudy
9:15 AM 48.2 °F - 42.8 °F 82% 29.68 in 10.0 mi SSW 9.2 mph - N/A   Scattered Clouds
9:35 AM 48.2 °F - 42.8 °F 82% 29.68 in 10.0 mi SW 8.1 mph - N/A   Clear
9:55 AM 50.0 °F - 42.8 °F 76% 29.68 in 10.0 mi WSW 9.2 mph - N/A   Clear
10:15 AM 51.8 °F - 37.4 °F 58% 29.68 in 10.0 mi WSW 4.6 mph - N/A   Clear
10:35 AM 53.6 °F - 37.4 °F 54% 29.69 in 10.0 mi SW 10.4 mph 18.4 mph N/A   Clear
10:55 AM 53.6 °F - 37.4 °F 54% 29.69 in 10.0 mi WSW 8.1 mph - N/A   Scattered Clouds
11:15 AM 55.4 °F - 33.8 °F 44% 29.69 in 10.0 mi WSW 11.5 mph 20.7 mph N/A   Scattered Clouds
11:35 AM 53.6 °F - 32.0 °F 44% 29.70 in 10.0 mi WSW 8.1 mph 17.3 mph N/A   Scattered Clouds
11:55 AM 55.4 °F - 33.8 °F 44% 29.70 in 10.0 mi WSW 10.4 mph - N/A   Mostly Cloudy
12:15 PM 57.2 °F - 33.8 °F 41% 29.69 in 10.0 mi SW 12.7 mph 17.3 mph N/A   Mostly Cloudy
12:35 PM 55.4 °F - 32.0 °F 41% 29.68 in 10.0 mi WSW 6.9 mph 16.1 mph N/A   Scattered Clouds
12:55 PM 55.4 °F - 30.2 °F 38% 29.68 in 10.0 mi WSW 10.4 mph 16.1 mph N/A   Scattered Clouds
1:15 PM 55.4 °F - 30.2 °F 38% 29.68 in 10.0 mi WSW 9.2 mph - N/A   Mostly Cloudy
1:35 PM 57.2 °F - 28.4 °F 33% 29.68 in 10.0 mi WSW 13.8 mph 19.6 mph N/A   Mostly Cloudy
1:55 PM 57.2 °F - 26.6 °F 31% 29.67 in 10.0 mi SW 12.7 mph 21.9 mph N/A   Scattered Clouds
2:15 PM 57.2 °F - 26.6 °F 31% 29.67 in 10.0 mi WSW 12.7 mph 19.6 mph N/A   Clear
2:35 PM 57.2 °F - 26.6 °F 31% 29.67 in 10.0 mi WSW 11.5 mph - N/A   Clear
2:55 PM 57.2 °F - 26.6 °F 31% 29.67 in 10.0 mi SW 13.8 mph 19.6 mph N/A   Clear
3:15 PM 57.2 °F - 26.6 °F 31% 29.67 in 10.0 mi SW 11.5 mph 19.6 mph N/A   Clear
3:35 PM 57.2 °F - 26.6 °F 31% 29.67 in 10.0 mi WSW 10.4 mph 19.6 mph N/A   Clear
3:55 PM 57.2 °F - 26.6 °F 31% 29.67 in 10.0 mi WSW 8.1 mph - N/A   Scattered Clouds
4:15 PM 55.4 °F - 26.6 °F 33% 29.67 in 10.0 mi WSW 9.2 mph - N/A   Scattered Clouds
4:35 PM 55.4 °F - 26.6 °F 33% 29.67 in 10.0 mi SW 9.2 mph - N/A   Clear
4:55 PM 55.4 °F - 26.6 °F 33% 29.67 in 10.0 mi WSW 9.2 mph - N/A   Clear
5:15 PM 55.4 °F - 26.6 °F 33% 29.68 in 10.0 mi WSW 8.1 mph - N/A   Clear
5:35 PM 53.6 °F - 26.6 °F 35% 29.68 in 10.0 mi WSW 9.2 mph - N/A   Clear
5:55 PM 53.6 °F - 26.6 °F 35% 29.69 in 10.0 mi WSW 4.6 mph - N/A   Clear
6:15 PM 51.8 °F - 26.6 °F 38% 29.69 in 10.0 mi WSW 4.6 mph - N/A   Clear
6:35 PM 51.8 °F - 28.4 °F 41% 29.69 in 10.0 mi Calm Calm - N/A   Clear
6:55 PM 50.0 °F - 28.4 °F 43% 29.69 in 10.0 mi Calm Calm - N/A   Clear
7:15 PM 48.2 °F - 28.4 °F 46% 29.70 in 10.0 mi Calm Calm - N/A   Clear
7:35 PM 46.4 °F - 30.2 °F 53% 29.70 in 10.0 mi Calm Calm - N/A   Clear
7:55 PM 46.4 °F - 28.4 °F 50% 29.69 in 10.0 mi Calm Calm - N/A   Clear
8:15 PM 46.4 °F - 28.4 °F 50% 29.69 in 10.0 mi Calm Calm - N/A   Clear
8:35 PM 46.4 °F - 28.4 °F 50% 29.69 in 10.0 mi Calm Calm - N/A   Clear
9:15 PM 44.6 °F - 30.2 °F 57% 29.70 in 10.0 mi Calm Calm - N/A   Scattered Clouds
9:35 PM 42.8 °F - 30.2 °F 61% 29.70 in 10.0 mi Calm Calm - N/A   Clear
9:55 PM 35.6 °F - 33.8 °F 93% 29.69 in 10.0 mi Calm Calm - N/A   Clear
10:15 PM 37.4 °F - 33.8 °F 87% 29.69 in 10.0 mi Calm Calm - N/A   Scattered Clouds
10:35 PM 41.0 °F 39.0 °F 32.0 °F 70% 29.70 in 10.0 mi WSW 3.5 mph - N/A   Mostly Cloudy
10:55 PM 44.6 °F - 30.2 °F 57% 29.69 in 10.0 mi Calm Calm - N/A Rain Rain
11:15 PM 41.0 °F - 33.8 °F 76% 29.69 in 10.0 mi Calm Calm - N/A   Overcast
11:35 PM 39.2 °F - 35.6 °F 87% 29.68 in 10.0 mi Calm Calm - N/A Rain Rain
11:55 PM 39.2 °F - 33.8 °F 81% 29.67 in 10.0 mi Calm Calm - N/A   Overcast